Location: Newark
(47.3150°N, 5.1150°E)
Time: 16:23:15
(UTC+00:00)

CUBEBUG 2 - Visible Passes

Search period start: 07 December 2019 00:00
Search period end: 17 December 2019 00:00
Orbit: 587 x 697 km, 97.6° (Epoch: 06 December)

Date Brightness Start Highest point End Pass type
(mag) Time Alt. Az. Time Alt. Az. Time Alt. Az.
07 Dec ? 03:58:27 10° NE 04:02:01 21° E 04:05:28 10° SE visible
07 Dec ? 05:34:24 10° N 05:38:51 46° WNW 05:43:09 10° SW visible
07 Dec ? 16:34:42 10° SSW 16:39:08 41° W 16:43:38 10° NNW visible
08 Dec ? 04:22:04 10° NNE 04:26:21 35° E 04:30:28 10° SSE visible
08 Dec ? 05:58:51 10° N 06:02:48 28° WNW 06:06:39 10° SW visible
08 Dec ? 16:59:35 10° SSW 17:03:26 25° W 17:07:20 10° NW visible
09 Dec ? 04:45:58 10° NNE 04:50:35 61° E 04:55:00 10° S visible
09 Dec ? 06:23:34 10° NNW 06:26:40 18° WNW 06:29:43 10° WSW visible
09 Dec ? 17:25:08 10° WSW 17:27:50 15° W 17:30:33 10° NW visible
10 Dec ? 03:35:31 10° ENE 03:37:30 13° E 03:39:28 10° ESE visible
10 Dec ? 05:10:05 10° N 05:14:43 78° WNW 05:19:10 10° SSW visible
11 Dec ? 03:58:25 10° NE 04:01:55 21° E 04:05:19 10° SE visible
11 Dec ? 05:34:22 10° N 05:38:46 45° WNW 05:43:00 10° SW visible
11 Dec ? 16:34:37 10° SSW 16:39:05 40° W 16:43:34 10° NNW visible
12 Dec ? 04:22:02 10° NNE 04:26:15 35° E 04:30:19 10° SSE visible
12 Dec ? 05:58:50 10° N 06:02:42 28° WNW 06:06:28 10° WSW visible
12 Dec ? 16:59:31 10° SSW 17:03:23 24° W 17:07:16 10° NW visible
13 Dec ? 04:45:56 10° NNE 04:50:29 62° E 04:54:50 10° S visible
13 Dec ? 06:23:35 10° NNW 06:26:34 17° WNW 06:29:29 10° WSW visible
13 Dec ? 17:25:06 10° WSW 17:27:46 15° W 17:30:27 10° NW visible
14 Dec ? 03:35:30 10° ENE 03:37:24 12° E 03:39:17 10° ESE visible
14 Dec ? 05:10:03 10° N 05:14:37 77° WNW 05:18:59 10° SSW visible
15 Dec ? 03:58:23 10° NE 04:01:49 21° E 04:05:09 10° SE visible
15 Dec ? 05:34:20 10° N 05:38:39 44° WNW 05:42:48 10° SW visible
15 Dec ? 16:34:34 10° SSW 16:39:01 40° W 16:43:29 10° NNW visible
16 Dec ? 04:21:59 10° NNE 04:26:08 35° E 04:30:08 10° SSE visible
16 Dec ? 05:58:48 10° N 06:02:35 27° WNW 06:06:16 10° WSW visible
16 Dec ? 16:59:28 10° SSW 17:03:19 24° W 17:07:10 10° NW visible
